Flag for United Kingdom Weather past 2 weeks in Chichester, England, United Kingdom

Now
63 °F

Fog.


Feels Like: 63 °F
Forecast: 64 / 79 °F
Wind: 3 mph from East

Location: Thorney Island

Current Time: Jul 23, 2014 at 2:29:00 AM

Latest Report: Jul 23, 2014 at 1:00 AM


Visibility: 4 mi

Pressure: 30.18 "Hg

Humidity: 94%

Dew point: 61 °F

Location of ChichesterLocation

Historic Weather in Chichester — Graph

°F

Chichester temperature yesterday

Maximum temperature yesterday: 84 °F (at 4:00 PM)
Minimum temperature yesterday: 60 °F (at 4:00 AM)
Average temperature yesterday: 70 °F

Past Weeks' High & Low Weather Summary

 TemperatureHumidityPressure
High84 °F (Jul 22, 4:00 PM)98% (Jul 20, 4:00 AM)30.20 "Hg (Jul 20, 4:00 AM)
Low52 °F (Jul 11, 5:00 AM)39% (Jul 22, 4:00 PM)29.73 "Hg (Jul 19, 9:00 AM)
Average66 °F77%30.00 "Hg
* Reported Midnight between Jul 7 and Jul 8 — Midnight between Jul 22 and Jul 23, Chichester, Weather by CustomWeather, © 2014

Note: Actual official high and low records may vary slightly from our data, if they occured in-between our weather recording intervals... More about our weather records

Advertising

Chichester weather history for previous 24 hours

 ConditionsComfort  
Time TempWeatherWind HumidityBarometerVisibility
12:00 AM
Jul 23
64 °FMild.3 mph92%30.19 "Hg6 mi
5:00 PM
Jul 22
79 °FWarm.8 mph52%30.16 "Hg22 mi
4:00 PM84 °FPleasantly warm.7 mph39%30.16 "Hg18 mi
3:00 PM82 °FWarm.10 mph42%30.17 "Hg19 mi
1:00 PM81 °FWarm.10 mph44%30.18 "Hg19 mi
12:00 PM79 °FWarm.9 mph49%30.19 "Hg31 mi
11:00 AM77 °FWarm.9 mph52%30.19 "Hg19 mi
10:00 AM75 °FMild.8 mph55%30.20 "Hg19 mi
9:00 AM71 °FMild.9 mph66%30.20 "Hg28 mi
8:00 AM68 °FMild.8 mph73%30.19 "Hg19 mi
7:00 AM63 °FMild.3 mph82%30.19 "Hg28 mi
6:00 AM61 °FCool.8 mph84%30.18 "Hg28 mi
5:00 AM60 °FCool.5 mph86%30.17 "Hg25 mi
4:00 AM60 °FCool.7 mph85%30.17 "Hg28 mi
3:00 AM62 °FCool.5 mph82%30.16 "Hg25 mi
2:00 AM62 °FCool.6 mph83%30.16 "Hg28 mi
Weather by CustomWeather, © 2014

See weather overviewHow to use our weather pages